Location: Eexterzandvoort
(53.0303°N, 6.7884°E)
Time: 23:33:26
(UTC+00:00)

Cosmos 1980 Rocket - Pass Details

Date: 19 May 2025
Orbit: 829 x 848 km, 71.0° (Epoch: 22 June)

Event Time Altitude Azimuth Distance (km) Brightness Sun altitude
Rises 20:44:33 0° 328° (NNW) 3,384 7.6 -8.8°
Reaches altitude 10° 20:47:01 10° 331° (NNW) 2,447 6.2 -9.0°
Maximum altitude 20:52:37 70° 55° (NE) 887 2.3 -9.5°
Enters shadow 20:57:41 13° 139° (SE) 2,250 3.7 -10.0°
